星链-35142 (STARLINK-35142)

导读 | 豆包AI

STARLINK-35142是美国SpaceX公司于2025年9月3日发射的星链互联网卫星,属于星链低轨宽带星座的组成部分。星链星座旨在为全球提供高带宽低延迟互联网服务,覆盖偏远地区、海上与航空场景。这款卫星经过技术迭代,配备激光星间链路和相控阵天线,采用霍尔推进系统,运行在近地轨道,可支持高速通信,服役末期会主动离轨再入大气层销毁,降低空间碎片风险。

基本信息
目录编号:
65434
目录名称:
STARLINK-35142
国际标识:
2025-194A
轨道中心:
EARTH
卫星名称:
星链-35142
卫星全名:
星链-35142 (STARLINK-35142)
卫星状态:
在轨 (已飞行192 天)
发射日期:
2025-09-03 UTC
国别 :
美国 (US)
星等 :
--
轨道信息
数据来源 国际轨道数据 AOE轨道数据
星历时间 2026-03-13T21:02:00+0800
23小时前
查看轨道信息
2026-03-11T03:00:00+0800
3天前
查看轨道信息
半长轴 6927.613km 6927.658km
偏心率 0.0001467 0.0001494
轨道倾角 97.603° 97.607°
近地点辐角 73.799° 241.939°
升交点赤经 288.115° 285.413°
平近点角 286.340° 334.121°
近地点 548.459km 548.486km
远地点 550.493km 550.556km
周期 95.639分钟 95.640分钟
每日圈数 15.056616 15.056471
详细信息
固有亮度:
5
最大亮度:
2.5
卫星平台:
Starlink V1.0
覆盖范围:
全球
运营商:
太空探索技术公司
运营商所在国:
美国
制造商(研发单位):
太空探索技术公司
制造商所在国:
美国
使用方式:
暂无
卫星简介
Starlink 计划是 SpaceX 推出的全球卫星互联网项目,通过发射低轨道卫星,为全球尤其是偏远地区提供高速、低延迟的互联网服务。自 2019 年起,Starlink 已部署数千颗卫星,旨在缩小全球数字鸿沟,推动互联网普及。该项目还为军事、航空等行业提供通信支持,带来广泛经济效益。
2D轨道图
3D轨道图
轨道高度分析图
轨道倾角分析图
轨道综合分析图
查看轨道综合分析图